Regional Weather Roundup
Issued by NWS Green Bay, WI

Home | Current Version | Previous Version | Graphics & Text | Print | Product List | Glossary Off
Versions: 1 2 3 4 5 6 7 8 9 10 11 12 13 14 15 16 17 18 19 20 21 22 23 24 25 26 27 28 29 30 31 32 33 34 35 36 37 38 39 40 41 42 43 44 45 46 47 48 49 50

293
ASUS43 KGRB 252200
RWRGRB

NORTH-CENTRAL AND NORTHEAST WISCONSIN REGIONAL WEATHER ROUNDUP
NATIONAL WEATHER SERVICE GREEN BAY WI
500 PM CDT THU MAY 25 2017

WIZ005-009-010>012-018-019-252300-
NORTH CENTRAL WISCONSIN

CITY           SKY/WX    TMP DP  RH WIND       PRES   REMARKS
IRONWOOD       SUNNY     69  48  47 NE7       29.68F
MANITOWISH WTR NOT AVBL
ARBOR VITAE    NOT AVBL
EAGLE RIVER    NOT AVBL
LAND O LAKES   NOT AVBL
RHINELANDER    MOSUNNY   73  46  38 E9        29.68S
PHILLIPS       NOT AVBL
ANTIGO         NOT AVBL
TOMAHAWK       NOT AVBL
MERRILL        NOT AVBL
$$

WIZ013-073-252300-
NORTHEAST WISCONSIN

CITY           SKY/WX    TMP DP  RH WIND       PRES   REMARKS
IRON MOUNTAIN  CLOUDY    70  43  37 NE6       29.67R
MARINETTE      CLOUDY    65  51  60 E6        29.68R
$$

WIZ017-030-035>037-045-252300-
CENTRAL WISCONSIN

CITY           SKY/WX    TMP DP  RH WIND       PRES   REMARKS
MEDFORD        NOT AVBL
WAUSAU         PTSUNNY   72  49  44 SW5       29.64F
MOSINEE        MOSUNNY   72  46  40 SW5       29.67F
MARSHFIELD     MOSUNNY   71  50  47 SE6       29.65F
WISC RAPIDS    MOSUNNY   73  48  41 VRB5      29.67S
STEVENS POINT  NOT AVBL
WAUPACA        NOT AVBL
SHAWANO        NOT AVBL
CLINTONVILLE   NOT AVBL
WAUTOMA        MOSUNNY   70  51  51 SE7       29.67S
$$

WIZ038-039-048-051-252300-
FOX VALLEY

CITY           SKY/WX    TMP DP  RH WIND       PRES   REMARKS
NWS GREEN BAY  SUNNY     69  53  56 NE16      29.67S
APPLETON       NOT AVBL
OSHKOSH        SUNNY     68  52  56 NE13      29.67S
FOND DU LAC    SUNNY     69  51  52 N10       29.67S
$$

WIZ022-050-052-252300-
EAST CENTRAL WISCONSIN

CITY           SKY/WX    TMP DP  RH WIND       PRES   REMARKS
EPHRAIM        NOT AVBL
WASHINGTON ISL NOT AVBL
STURGEON BAY   SUNNY     66  52  60 E8        29.67S
MANITOWOC      NOT AVBL
SHEBOYGAN      MOSUNNY   63  55  75 NE12      29.67S
$$

LMZ563-521-522-541>543-252300-
LAKESHORE

STATION/POSITION TIME  TEMP    WIND        PRES    VSBY  WAVE
                       AIR SEA DIR/SP/G                  HT/PER
                 (UTC) (F)     (DEG/KT/KT) (MB)    (MI)  (FT/S)
SHEBOYGAN LKSHOR 2100   50      10/ 14/ 16 1004.5F
KEWAUNEE LKSHORE 2130   58      30/  6/  9 1004.7R
NORTHPORT PIER   2140   59     140/  4/  5 1004.7R
N MID LAKE BUOY  2050   47 41   30/  6/  6 1005.1F         0
CHAMBERS ISLAND  2130   61      20/  2/  4 1004.4S
MENOMINEE LKSHOR 2130          350/  5/  5 1004.0R
$$




USA.gov is the U.S. government's official web portal to all federal, state and local government web resources and services.